This is the latest recevied weather packets stored in our database for station/object VE3VGJ. If no packets are shown the sender has not sent any weather packets the latest 10 day(s).
| Time | Temp. | Humidity | Pressure | Rain* | Wind** | Luminosity | Snow |
|---|---|---|---|---|---|---|---|
| 1777466590 | 10.56° C | 75% | 1013.1 hPa | 0 mm | - | 193 W/m² | - |
| 1777466286 | 10° C | 75% | 1012.9 hPa | 0 mm | - | 152 W/m² | - |
| 1777465982 | 10° C | 75% | 1012.9 hPa | 0 mm | - | 120 W/m² | - |
| 1777465678 | 10° C | 74% | 1013 hPa | 0 mm | - | 116 W/m² | - |
| 1777465374 | 10° C | 75% | 1013 hPa | 0 mm | - | 136 W/m² | - |
| 1777465072 | 10° C | 75% | 1013 hPa | 0 mm | - | 98 W/m² | - |
| 1777464768 | 10° C | 74% | 1013 hPa | 0 mm | - | 72 W/m² | - |
| 1777464465 | 10° C | 76% | 1012.9 hPa | 0 mm | - | 94 W/m² | - |
| 1777464161 | 10° C | 78% | 1013 hPa | 0 mm | - | 131 W/m² | - |
| 1777463860 | 9.44° C | 78% | 1013 hPa | 0 mm | - | 122 W/m² | - |
| 1777463556 | 9.44° C | 79% | 1012.9 hPa | 0 mm | - | 161 W/m² | - |
| 1777463251 | 9.44° C | 81% | 1012.9 hPa | 0 mm | - | 126 W/m² | - |
| 1777462948 | 8.89° C | 82% | 1013.2 hPa | 0 mm | - | 128 W/m² | - |
| 1777462644 | 8.89° C | 83% | 1012.8 hPa | 0 mm | - | 147 W/m² | - |
| 1777462339 | 8.33° C | 85% | 1012.9 hPa | 0 mm | - | 108 W/m² | - |
| 1777462035 | 8.33° C | 85% | 1012.9 hPa | 0 mm | - | 98 W/m² | - |
| 1777461733 | 8.33° C | 86% | 1012.8 hPa | 0 mm | - | 69 W/m² | - |
| 1777461428 | 7.78° C | 86% | 1012.8 hPa | 0 mm | - | 53 W/m² | - |
| 1777461124 | 7.78° C | 87% | 1012.6 hPa | 0 mm | - | 51 W/m² | - |
| 1777460820 | 7.78° C | 88% | 1012.3 hPa | 0 mm | - | 47 W/m² | - |
| 1777460515 | 7.22° C | 89% | 1012.4 hPa | 0 mm | - | 39 W/m² | - |
| 1777460211 | 7.22° C | 89% | 1012.4 hPa | 0 mm | - | 32 W/m² | - |
| 1777459908 | 7.22° C | 90% | 1012.6 hPa | 0 mm | - | 24 W/m² | - |
| 1777459605 | 7.22° C | 90% | 1012.6 hPa | 0 mm | - | 22 W/m² | - |
| 1777459302 | 6.67° C | 90% | 1012.5 hPa | 0 mm | - | 20 W/m² | - |
* Rain latest hour (hover to see other rain measurements)
** Current wind speed in m/s (hover to see current wind gust speed)